This is the latest recevied weather packets stored in our database for station/object 9W8AKN-L. If no packets are shown the sender has not sent any weather packets the latest 10 day(s).
| Time | Temp. | Humidity | Pressure | Rain* | Wind** | Luminosity | Snow |
|---|---|---|---|---|---|---|---|
| 1777574836 | 27.22° C | 99% | 1010 hPa | - | - | - | - |
| 1777573936 | 27.22° C | 99% | 1010.2 hPa | - | - | - | - |
| 1777573036 | 27.22° C | 99% | 1010.1 hPa | - | - | - | - |
| 1777572136 | 27.22° C | 99% | 1010.3 hPa | - | - | - | - |
| 1777571236 | 27.22° C | 99% | 1010.5 hPa | - | - | - | - |
| 1777570336 | 27.22° C | 98% | 1010.7 hPa | - | - | - | - |
| 1777569436 | 27.78° C | 99% | 1010.9 hPa | - | - | - | - |
| 1777568536 | 27.78° C | 98% | 1011.3 hPa | - | - | - | - |
| 1777567636 | 27.78° C | 98% | 1011.6 hPa | - | - | - | - |
| 1777566735 | 27.78° C | 97% | 1011.5 hPa | - | - | - | - |
| 1777565835 | 27.78° C | 97% | 1011.5 hPa | - | - | - | - |
| 1777564935 | 27.78° C | 98% | 1011.4 hPa | - | - | - | - |
| 1777564035 | 27.78° C | 96% | 1011.4 hPa | - | - | - | - |
| 1777563135 | 27.78° C | 94% | 1011.6 hPa | - | - | - | - |
| 1777562235 | 27.78° C | 94% | 1011.4 hPa | - | - | - | - |
| 1777561335 | 27.78° C | 90% | 1011.4 hPa | - | - | - | - |
| 1777560435 | 28.33° C | 87% | 1011.3 hPa | - | - | - | - |
| 1777558637 | 28.33° C | 92% | 1011.2 hPa | - | - | - | - |
| 1777557737 | 28.33° C | 92% | 1011.1 hPa | - | - | - | - |
| 1777556837 | 28.33° C | 92% | 1010.9 hPa | - | - | - | - |
| 1777555937 | 28.33° C | 91% | 1010.8 hPa | - | - | - | - |
| 1777555037 | 28.33° C | 91% | 1010.4 hPa | - | - | - | - |
| 1777554137 | 28.33° C | 89% | 1010 hPa | - | - | - | - |
| 1777553237 | 28.33° C | 90% | 1009.9 hPa | - | - | - | - |
| 1777552337 | 28.33° C | 89% | 1009.5 hPa | - | - | - | - |
* Rain since midnight (hover to see other rain measurements)
** Current wind speed in m/s (hover to see current wind gust speed)